ONEWEB-0323, 49106

Orbit data source: Space-Track

ONEWEB-0323, 49106 is a payload satellite owned by One Web (NAA) (UK) in LEO that was launched on Sat, 21 Aug 2021 UTC via a SOYUZ-2-1B launch vehicle from the Tyuratam Missile And Space Complex (TTMTR). Payload-class satellites include a variety of spacecraft equipped with specific instruments for various scientific and technological missions. These include communications satellites like Starlink; space stations such as the ISS; scientific satellites like the Hubble; Earth observation satellites from companies like Planet Labs, Umbra, and HawkEye 360; GPS; miniature CubeSats for education and research; and military/defense satellites.

Loading next visibility...
Identifier
49106, 2021-075AH
Orbit
LEO
Country
Flag of UKUK
Related business
Manufacturer
One Web
Mission
Operational Commercial Communications
Bus & Motor
ARROW, Unknown motor
Mass
148 kg wet, ~140 kg dry
Launch date (UTC)
2021-08-21 (5 years ago)
Launch vehicle
SOYUZ-2-1B
Launch site
Tyuratam Missile And Space Complex (TTMTR)
Object type
Payload
Rocket body
Debris
Shape & HBR
Trap Box + 2 Pan, 6.7 m
Radar Cross Section
3.464 m², Large (>1 m²)

Expand to show TLE details & history
Last TLE update: 23 hours ago

TLE from 23 hours ago
0 ONEWEB-0323
1 49106U 21075AH  26175.20706812 -.00000546  00000-0 -15524-2 0  9998
2 49106  87.8952 349.2534 0002201  79.7644 280.3733 13.12442544235470
Epoch: 2026-06-24T04:58Z
TLE epoch observation values (Epoch: 2026-06-24T04:58:10.685Z)
Latitude
0.00001°
Longitude
2.34128°
Altitude
1,216.315 km
Speed
7.246 km/s
True Right ascension
23h 17m 00s
True Declination
0° 00' 00"
Sunlit
Object was in daylight at epoch
Visualization orbit readout
Latitude
Unknown
Longitude
Unknown
Altitude
Unknown
Speed
Unknown
Apparent Right ascension
Unknown
Apparent Declination
Unknown
Sunlit
N/A
Visualization observer readout
Local Sidereal Time
15:28:35
Azimuth
Unknown
Elevation
Unknown
Doppler factor
Unknown
Orbital elements
Apogee altitude
1,212.512 km
Perigee altitude
1,209.171 km
Semi-major axis
7,588.979 km
Eccentricity
0.00022
Inclination
87.8952°
RAAN
349.2534°
Arg. of periapsis
79.7644°
True anomaly
280.34849°
Mean anomaly
280.3733°
Eccentric anomaly
280.36089°
Mean motion
3.28298 °/min
Orbital period
109.66 mins
BSTAR
-0.0015524
Loading maneuver chart data...
Computing Atmospheric mass density...
Loading historical data...
Loading historical data...
Loading historical data...
Loading historical data...
Loading historical data...
Loading historical data...
Loading historical data...

Documentation

Showing up to 5 results
|